Orbital Elements at Epoch 2459200.5 (2020-Dec-17.0) TDB
Reference: JPL 16 (heliocentric ecliptic J2000)
Element | Value | Uncertainty (1-sigma) | Units |
e | .2301706592109851 | 7.4599e-08 | |
a | 2.774558000797774 | 1.5101e-08 | au |
q | 2.135936156735037 | 2.0268e-07 | au |
i | 7.314503985300669 | 7.1503e-06 | deg |
node | 306.1742625537834 | 4.2795e-05 | deg |
peri | 201.8960105643192 | 4.4298e-05 | deg |
M | 72.08388627968563 | 1.0414e-05 | deg |
tp | 2458862.493672095904 (2020-Jan-13.99367210) | 4.7848e-05 | TDB |
period | 1688.064896686438 4.62 | 1.3781e-05 3.773e-08 | d yr |
n | .2132619431318409 | 1.7411e-09 | deg/d |
Q | 3.413179844860511 | 1.8577e-08 | au |
|
| | Orbit Determination Parameters
Additional Information
|